When you browse on this site, cookies collect data to enhance your experience and personalize the content and advertising you see.
Visit our Privacy Policy to learn more. By continuing to use the site, you agree to this use of cookies and data.
  • In Hungary
  • List of Countries
  • For 7 days
  • Water Temperature
  • Satellite Maps
  • Weather Map
  • News
  • Weather Widgets
  • user-avatar
    Login

    Hourly Weather Majadahonda

    Today, 20 January, Sunday

    Time Temperature Precipitation Wind Pressure Humidity
    00:00 +4°C° 0 mm 1 mps 691 mmHg 91%
    01:00 +4°C° 0.7 mm 1 mps 691 mmHg 91%
    02:00 +5°C° 0.7 mm 1 mps 691 mmHg 91%
    03:00 +5°C° 0.7 mm 1 mps 691 mmHg 91%
    04:00 +4°C° 0.3 mm 2 mps 692 mmHg 90%
    05:00 +4°C° 0.3 mm 2 mps 692 mmHg 88%
    06:00 +4°C° 0 mm 3 mps 693 mmHg 82%
    07:00 +4°C° 0 mm 3 mps 693 mmHg 79%
    08:00 +4°C° 0 mm 3 mps 694 mmHg 76%
    09:00 +4°C° 0 mm 3 mps 695 mmHg 72%
    10:00 +5°C° 0 mm 4 mps 695 mmHg 65%
    11:00 +7°C° 0 mm 5 mps 696 mmHg 57%
    12:00 +7°C° 0 mm 6 mps 696 mmHg 49%
    13:00 +7°C° 0 mm 6 mps 697 mmHg 49%
    14:00 +8°C° 0 mm 6 mps 697 mmHg 49%
    15:00 +8°C° 0 mm 5 mps 697 mmHg 49%
    16:00 +7°C° 0 mm 4 mps 697 mmHg 54%
    17:00 +7°C° 0 mm 3 mps 697 mmHg 58%
    18:00 +5°C° 0 mm 2 mps 698 mmHg 63%
    19:00 +5°C° 0 mm 2 mps 698 mmHg 65%
    20:00 +4°C° 0 mm 2 mps 698 mmHg 68%
    21:00 +4°C° 0 mm 2 mps 699 mmHg 70%
    22:00 +4°C° 0 mm 2 mps 699 mmHg 71%
    23:00 +3°C° 0 mm 2 mps 699 mmHg 73%

    Tomorrow, 21 January, Monday

    Time Temperature Precipitation Wind Pressure Humidity
    00:00 +3°C° 0 mm 2 mps 700 mmHg 74%
    01:00 +3°C° 0 mm 2 mps 700 mmHg 75%
    02:00 +2°C° 0 mm 2 mps 700 mmHg 76%
    03:00 +2°C° 0 mm 2 mps 700 mmHg 78%
    04:00 +2°C° 0 mm 2 mps 700 mmHg 78%
    05:00 +2°C° 0 mm 2 mps 700 mmHg 79%
    06:00 +2°C° 0 mm 2 mps 700 mmHg 80%
    07:00 +2°C° 0 mm 2 mps 701 mmHg 77%
    08:00 +3°C° 0 mm 2 mps 701 mmHg 74%
    09:00 +4°C° 0 mm 2 mps 701 mmHg 71%
    10:00 +5°C° 0 mm 2 mps 702 mmHg 64%
    11:00 +7°C° 0 mm 3 mps 702 mmHg 56%
    12:00 +7°C° 0 mm 4 mps 702 mmHg 48%
    13:00 +7°C° 0 mm 4 mps 702 mmHg 48%
    14:00 +7°C° 0 mm 4 mps 701 mmHg 48%
    15:00 +7°C° 0 mm 4 mps 701 mmHg 47%
    16:00 +6°C° 0 mm 4 mps 701 mmHg 52%
    17:00 +5°C° 0 mm 3 mps 701 mmHg 57%
    18:00 +5°C° 0 mm 2 mps 701 mmHg 62%
    19:00 +4°C° 0 mm 2 mps 702 mmHg 66%
    20:00 +3°C° 0 mm 2 mps 702 mmHg 69%
    21:00 +3°C° 0 mm 2 mps 702 mmHg 72%
    22:00 +3°C° 0 mm 1 mps 702 mmHg 73%
    23:00 +3°C° 0 mm 1 mps 702 mmHg 74%

    Day after tomorrow, 22 January, Tuesday

    Time Temperature Precipitation Wind Pressure Humidity
    00:00 +2°C° 0 mm 1 mps 701 mmHg 75%
    01:00 +2°C° 0 mm 1 mps 701 mmHg 76%
    02:00 +2°C° 0 mm 1 mps 701 mmHg 76%
    03:00 +2°C° 0 mm 1 mps 700 mmHg 76%
    04:00 +2°C° 0 mm 1 mps 700 mmHg 74%
    05:00 +2°C° 0 mm 1 mps 700 mmHg 73%
    06:00 +3°C° 0 mm 1 mps 699 mmHg 71%
    07:00 +2°C° 0 mm 2 mps 699 mmHg 68%
    08:00 +3°C° 0 mm 2 mps 699 mmHg 65%
    09:00 +4°C° 0 mm 2 mps 699 mmHg 62%
    10:00 +4°C° 0 mm 3 mps 699 mmHg 58%
    11:00 +6°C° 0 mm 4 mps 698 mmHg 54%
    12:00 +7°C° 0 mm 4 mps 698 mmHg 50%
    13:00 +7°C° 0.2 mm 5 mps 697 mmHg 54%
    14:00 +7°C° 0.2 mm 5 mps 696 mmHg 58%
    15:00 +8°C° 0.2 mm 6 mps 696 mmHg 62%
    16:00 +7°C° 0.2 mm 6 mps 696 mmHg 62%
    17:00 +5°C° 0.2 mm 6 mps 696 mmHg 63%
    18:00 +5°C° 0.2 mm 6 mps 696 mmHg 63%
    19:00 +4°C° 0 mm 6 mps 696 mmHg 63%
    20:00 +5°C° 0 mm 5 mps 697 mmHg 64%
    21:00 +4°C° 0 mm 4 mps 697 mmHg 64%
    22:00 +3°C° 0 mm 4 mps 697 mmHg 66%
    23:00 +3°C° 0 mm 4 mps 697 mmHg 68%

    23 January, Wednesday

    Time Temperature Precipitation Wind Pressure Humidity
    00:00 +3°C° 0 mm 4 mps 697 mmHg 70%
    01:00 +1°C° 0 mm 4 mps 697 mmHg 71%
    02:00 +1°C° 0 mm 4 mps 697 mmHg 72%
    03:00 +1°C° 0 mm 4 mps 697 mmHg 73%
    04:00 +1°C° 0 mm 5 mps 696 mmHg 74%
    05:00 +1°C° 0 mm 5 mps 696 mmHg 74%
    06:00 +1°C° 0 mm 6 mps 695 mmHg 75%
    07:00 +2°C° 0 mm 6 mps 695 mmHg 73%
    08:00 +3°C° 0 mm 7 mps 695 mmHg 72%
    09:00 +4°C° 0 mm 7 mps 695 mmHg 71%
    10:00 +5°C° 0 mm 9 mps 695 mmHg 66%
    11:00 +7°C° 0 mm 10 mps 695 mmHg 61%
    12:00 +8°C° 0 mm 11 mps 694 mmHg 56%
    13:00 +9°C° 0 mm 11 mps 694 mmHg 53%
    14:00 +11°C° 0 mm 11 mps 693 mmHg 51%
    15:00 +11°C° 0 mm 11 mps 693 mmHg 49%
    16:00 +9°C° 0 mm 10 mps 693 mmHg 54%
    17:00 +8°C° 0 mm 9 mps 692 mmHg 60%
    18:00 +7°C° 0 mm 8 mps 692 mmHg 65%
    19:00 +7°C° 0 mm 8 mps 693 mmHg 67%
    20:00 +8°C° 0 mm 7 mps 693 mmHg 69%
    21:00 +7°C° 0 mm 6 mps 694 mmHg 71%
    22:00 +7°C° 0 mm 6 mps 694 mmHg 73%
    23:00 +7°C° 0 mm 5 mps 694 mmHg 75%

    24 January, Thursday

    Time Temperature Precipitation Wind Pressure Humidity
    00:00 +6°C° 0 mm 4 mps 694 mmHg 77%
    01:00 +7°C° 0 mm 3 mps 695 mmHg 77%
    02:00 +5°C° 0 mm 3 mps 695 mmHg 77%
    03:00 +6°C° 0 mm 2 mps 695 mmHg 77%
    04:00 +6°C° 0 mm 2 mps 695 mmHg 75%
    05:00 +6°C° 0 mm 2 mps 696 mmHg 72%
    06:00 +6°C° 0 mm 2 mps 696 mmHg 70%
    07:00 +5°C° 0 mm 3 mps 696 mmHg 68%
    08:00 +7°C° 0 mm 3 mps 697 mmHg 66%
    09:00 +6°C° 0 mm 4 mps 697 mmHg 65%
    10:00 +7°C° 0 mm 5 mps 698 mmHg 61%
    11:00 +8°C° 0 mm 6 mps 698 mmHg 56%
    12:00 +9°C° 0 mm 6 mps 698 mmHg 52%
    13:00 +9°C° 0 mm 6 mps 698 mmHg 51%
    14:00 +9°C° 0 mm 6 mps 698 mmHg 51%
    15:00 +10°C° 0 mm 6 mps 698 mmHg 50%
    16:00 +9°C° 0 mm 5 mps 698 mmHg 55%
    17:00 +8°C° 0 mm 4 mps 698 mmHg 59%
    18:00 +8°C° 0 mm 3 mps 699 mmHg 64%
    19:00 +7°C° 0 mm 3 mps 699 mmHg 67%
    20:00 +7°C° 0 mm 2 mps 699 mmHg 71%
    21:00 +6°C° 0 mm 2 mps 700 mmHg 74%
    22:00 +6°C° 0 mm 2 mps 700 mmHg 76%
    23:00 +6°C° 0 mm 2 mps 700 mmHg 78%

    25 January, Friday

    Time Temperature Precipitation Wind Pressure Humidity
    00:00 +5°C° 0 mm 2 mps 701 mmHg 79%
    01:00 +5°C° 0 mm 2 mps 701 mmHg 80%
    02:00 +5°C° 0 mm 2 mps 701 mmHg 81%
    03:00 +5°C° 0 mm 2 mps 701 mmHg 82%
    04:00 +5°C° 0 mm 2 mps 701 mmHg 82%
    05:00 +5°C° 0 mm 1 mps 701 mmHg 83%
    06:00 +5°C° 0 mm 1 mps 701 mmHg 84%
    07:00 +5°C° 0 mm 2 mps 702 mmHg 82%
    08:00 +6°C° 0 mm 2 mps 702 mmHg 79%
    09:00 +7°C° 0 mm 2 mps 703 mmHg 77%
    10:00 +8°C° 0 mm 3 mps 703 mmHg 69%
    11:00 +10°C° 0 mm 3 mps 703 mmHg 62%
    12:00 +12°C° 0 mm 3 mps 703 mmHg 54%
    13:00 +12°C° 0 mm 3 mps 703 mmHg 52%
    14:00 +12°C° 0 mm 3 mps 702 mmHg 51%
    15:00 +12°C° 0 mm 3 mps 702 mmHg 49%
    16:00 +11°C° 0 mm 3 mps 702 mmHg 55%
    17:00 +10°C° 0 mm 3 mps 702 mmHg 60%
    18:00 +8°C° 0 mm 2 mps 702 mmHg 66%
    19:00 +8°C° 0 mm 2 mps 702 mmHg 69%
    20:00 +7°C° 0 mm 2 mps 702 mmHg 72%
    21:00 +6°C° 0 mm 2 mps 703 mmHg 75%
    22:00 +7°C° 0 mm 1 mps 703 mmHg 76%
    23:00 +6°C° 0 mm 1 mps 703 mmHg 77%
    Show more